STARLINK-1675 (46575 NORAD) Tracking and Keplerian Element Data

This shows tracking and keplerian element data for the satellite.

Feedback or suggestion? Click here.




ElementValue
Catalog46575
NameSTARLINK-1675
Epoch Orbit177
Epoch Day304.91667824
Epoch Year2020
RAAN321.9195
Inclination53.0013
Eccentricity8.24E-05
Argument of Perigee65.5742
Mean Anonmoly203.2576
Mean Motion15.62688562
Decay Rate0.00081275
L11 46575U 20070AV 20304.91667824 .00081275 00000-0 88680-3 0 9994
L22 46575 53.0013 321.9195 0000824 65.5742 203.2576 15.62688562 1773

Live tracking and technical data element details for STARLINK-1675 (NORAD 46575). STARLINK-1675 can be tracked NOW for your location showing map with azimuth and elevation plus other details from your city location.

Track the satellite on the map from your city or location and see movement details for azimuth, elevation, latitude, longitude, range, height, and movement on the map or in text.







IsCatalogInMostPopularTable: catalog: 46575, numindb: 3
Update: records affected: 1



GetName: 46575 STARLINK-1675

Hit Count: updated at: Sat, 31 Oct 2020 11:01:20 GMT